Location: Newark
(34.0131°N, 4.3314°W)
Time: 19:34:21
(UTC+00:00)

Explorer 7 - Pass Details

Date: 22 October 2019
Orbit: 485 x 680 km, 50.3° (Epoch: 17 November)

Event Time Altitude Azimuth Distance (km) Brightness Sun altitude
Rises 18:31:45 0° 294° (WNW) 2,655 11.4 -12.4°
Reaches altitude 10° 18:34:22 10° 277° (W) 1,797 10.8 -12.9°
Maximum altitude 18:37:20 20° 230° (SW) 1,331 9.5 -13.5°
Drops below altitude 10° 18:40:26 10° 183° (S) 1,877 9.6 -14.2°
Sets 18:43:15 0° 166° (SSE) 2,816 10.3 -14.7°
